Location: Newark
(44.2003°N, 3.2583°E)
Time: 12:06:45
(UTC+00:00)

A-11 Canister half - Visible Passes

Search period start: 18 October 2019 00:00
Search period end: 28 October 2019 00:00
Orbit: 1527 x 1682 km, 47.3° (Epoch: 17 October)

Date Brightness Start Highest point End Pass type
(mag) Time Alt. Az. Time Alt. Az. Time Alt. Az.
18 Oct 9.7 02:48:41 36° SSE 02:48:41 36° SSE 02:54:14 10° SE visible
18 Oct 10.2 04:47:03 15° WSW 04:48:29 15° SW 04:53:27 10° SSW visible
18 Oct 10.0 17:58:07 10° S 18:04:39 21° SE 18:08:39 16° E visible
18 Oct 9.0 19:59:02 10° SW 20:06:59 58° S 20:06:59 58° S visible
18 Oct 10.8 22:03:51 10° W 22:05:19 16° W 22:05:19 16° W visible
19 Oct 10.2 02:29:07 25° SSE 02:29:07 25° SSE 02:32:41 10° SE visible
19 Oct 10.2 04:27:29 16° SW 04:27:29 16° SW 04:32:19 10° SSW visible
19 Oct 10.1 17:36:51 10° S 17:43:08 20° SE 17:48:38 12° E visible
19 Oct 8.9 19:37:28 10° SW 19:46:41 61° SE 19:46:59 60° SE visible
19 Oct 10.4 21:42:11 10° W 21:45:18 24° W 21:45:18 24° W visible
20 Oct 10.7 02:09:33 16° SE 02:09:33 16° SE 02:11:08 10° SE visible
20 Oct 10.3 04:07:56 16° SW 04:07:56 16° SW 04:11:09 10° SSW visible
20 Oct 10.2 17:15:36 10° SSE 17:21:35 19° SE 17:27:28 10° E visible
20 Oct 8.9 19:15:54 10° SW 19:25:05 58° SE 19:26:52 51° ESE visible
20 Oct 10.0 21:20:32 10° W 21:25:11 34° W 21:25:11 34° W visible
21 Oct 10.6 03:48:22 13° SSW 03:48:22 13° SSW 03:49:56 10° SSW visible
21 Oct 9.0 18:54:20 10° SW 19:03:30 56° SE 19:06:42 40° E visible
21 Oct 9.6 20:58:52 10° WSW 21:05:01 46° W 21:05:01 46° W visible
22 Oct 9.1 18:32:47 10° SW 18:41:55 54° SE 18:46:27 31° E visible
22 Oct 9.2 20:37:13 10° WSW 20:44:45 62° W 20:44:45 62° W visible
22 Oct 11.1 22:42:50 10° WNW 22:43:04 11° WNW 22:43:04 11° WNW visible
23 Oct 9.2 18:11:15 10° SW 18:20:20 52° SE 18:26:08 23° ENE visible
23 Oct 8.9 20:15:34 10° WSW 20:24:26 79° WNW 20:24:26 79° WNW visible
23 Oct 10.9 22:21:10 10° WNW 22:22:45 16° WNW 22:22:45 16° WNW visible
24 Oct 9.3 17:49:42 10° SSW 17:58:45 50° SE 18:05:46 17° ENE visible
24 Oct 8.8 19:53:54 10° WSW 20:03:25 84° NNW 20:04:04 79° NE visible
24 Oct 10.6 21:59:32 10° WNW 22:02:22 23° WNW 22:02:22 23° WNW visible
25 Oct 9.4 17:28:10 10° SSW 17:37:10 48° SE 17:45:21 12° ENE visible
25 Oct 8.8 19:32:15 10° WSW 19:41:46 86° NNW 19:43:39 63° ENE visible
25 Oct 10.3 21:37:52 10° W 21:41:57 30° WNW 21:41:57 30° WNW visible
26 Oct 9.5 17:06:38 10° SSW 17:15:36 46° SE 17:24:20 10° ENE visible
26 Oct 8.9 19:10:36 10° WSW 19:20:08 87° NNW 19:23:12 50° ENE visible
26 Oct 9.9 21:16:12 10° W 21:21:29 38° WNW 21:21:29 38° WNW visible
27 Oct 8.9 18:48:56 10° WSW 18:58:30 89° NNW 19:02:43 39° ENE visible
27 Oct 9.6 20:54:33 10° W 21:01:00 49° WNW 21:01:00 49° WNW visible
